DAL1089 KMIA-KATL

Flight info

Callsign DAL1089
Flight time 1h 26m
Altitude 35000
Route FLMGO2 STYMY Q77 SHRKS LAIRI LARZZ JJEDI4
Aircraft A320/M-SDE3FGHIRWY/LB1

Departure

Time 2026-05-04 21:21
Airport Miami International Airport (KMIA)

Arrival

Time 2026-05-04 22:47
Airport Hartsfield Jackson Atlanta International Airport (KATL)
Time Latitude Longitude Altitude Speed Heading
2026-05-04 20:36 25.79135 -80.27703 15 ft 0 kts 84°
2026-05-04 21:08 25.79134 -80.27712 15 ft 3 kts 85°
2026-05-04 21:09 25.79133 -80.27737 15 ft 3 kts 95°
2026-05-04 21:09 25.79138 -80.27761 15 ft 3 kts 123°
2026-05-04 21:09 25.79150 -80.27773 18 ft 2 kts 183°
2026-05-04 21:09 25.79151 -80.27773 18 ft 0 kts 184°
2026-05-04 21:11 25.79108 -80.27777 15 ft 6 kts 188°
2026-05-04 21:12 25.79023 -80.27809 15 ft 16 kts 204°
2026-05-04 21:12 25.78944 -80.27874 15 ft 13 kts 242°
2026-05-04 21:12 25.78955 -80.27965 16 ft 12 kts 295°
2026-05-04 21:12 25.78995 -80.28047 16 ft 13 kts 295°
2026-05-04 21:13 25.79008 -80.28106 16 ft 11 kts 252°
2026-05-04 21:13 25.79042 -80.28147 15 ft 8 kts 322°
2026-05-04 21:13 25.79075 -80.28197 16 ft 10 kts 301°
2026-05-04 21:13 25.79126 -80.28289 15 ft 18 kts 302°
2026-05-04 21:14 25.79195 -80.28394 15 ft 16 kts 315°
2026-05-04 21:14 25.79259 -80.28487 15 ft 14 kts 300°
2026-05-04 21:14 25.79309 -80.28586 15 ft 19 kts 299°
2026-05-04 21:14 25.79374 -80.28715 15 ft 18 kts 299°
2026-05-04 21:15 25.79434 -80.28831 15 ft 16 kts 299°
2026-05-04 21:15 25.79487 -80.28935 15 ft 15 kts 300°
2026-05-04 21:15 25.79540 -80.29038 15 ft 16 kts 300°
2026-05-04 21:15 25.79592 -80.29141 15 ft 17 kts 299°
2026-05-04 21:16 25.79658 -80.29269 15 ft 19 kts 300°
2026-05-04 21:16 25.79718 -80.29388 15 ft 17 kts 298°
2026-05-04 21:16 25.79774 -80.29494 15 ft 15 kts 301°
2026-05-04 21:16 25.79827 -80.29599 15 ft 18 kts 298°
2026-05-04 21:17 25.79882 -80.29713 14 ft 16 kts 298°
2026-05-04 21:17 25.79927 -80.29819 16 ft 14 kts 293°
2026-05-04 21:17 25.79965 -80.29917 14 ft 13 kts 288°
2026-05-04 21:17 25.79987 -80.30013 13 ft 12 kts 285°
2026-05-04 21:18 25.80012 -80.30096 16 ft 10 kts 288°
2026-05-04 21:18 25.80057 -80.30126 14 ft 6 kts 15°
2026-05-04 21:18 25.80073 -80.30084 14 ft 7 kts 84°
2026-05-04 21:18 25.80074 -80.30069 13 ft 0 kts 86°
2026-05-04 21:19 25.80074 -80.30066 13 ft 0 kts 86°
2026-05-04 21:20 25.80077 -80.29974 13 ft 43 kts 88°
2026-05-04 21:20 25.80102 -80.29380 15 ft 108 kts 87°
2026-05-04 21:20 25.80145 -80.28348 16 ft 158 kts 86°
2026-05-04 21:20 25.80218 -80.27073 528 ft 164 kts 84°
2026-05-04 21:21 25.80274 -80.25832 1282 ft 162 kts 83°
2026-05-04 21:21 25.80331 -80.24575 1920 ft 167 kts 83°
2026-05-04 21:21 25.80392 -80.23204 2220 ft 189 kts 83°
2026-05-04 21:21 25.80459 -80.21631 2494 ft 214 kts 84°
2026-05-04 21:22 25.80525 -80.19891 2832 ft 238 kts 85°
2026-05-04 21:22 25.80640 -80.17993 3497 ft 250 kts 75°
2026-05-04 21:22 25.81448 -80.16290 4294 ft 258 kts 42°
2026-05-04 21:22 25.83046 -80.15379 5095 ft 264 kts 11°
2026-05-04 21:23 25.84858 -80.15197 5951 ft 268 kts 356°
2026-05-04 21:23 25.86747 -80.15276 6748 ft 276 kts 353°
2026-05-04 21:23 25.88682 -80.15425 7574 ft 279 kts 348°
2026-05-04 21:23 25.90548 -80.15994 8352 ft 280 kts 333°
2026-05-04 21:24 25.92372 -80.16782 9151 ft 284 kts 335°
2026-05-04 21:24 25.94260 -80.17492 9918 ft 289 kts 337°
2026-05-04 21:24 25.96202 -80.18171 10458 ft 301 kts 338°
2026-05-04 21:24 25.98231 -80.19022 10661 ft 321 kts 329°
2026-05-04 21:25 26.00154 -80.20364 11042 ft 331 kts 317°
2026-05-04 21:25 26.01896 -80.22052 11723 ft 334 kts 314°
2026-05-04 21:25 26.03641 -80.23777 12453 ft 337 kts 313°
2026-05-04 21:25 26.05398 -80.25519 13183 ft 340 kts 313°
2026-05-04 21:26 26.07168 -80.27277 13875 ft 342 kts 313°
2026-05-04 21:26 26.08950 -80.29049 14460 ft 345 kts 313°
2026-05-04 21:26 26.10750 -80.30837 15045 ft 348 kts 313°
2026-05-04 21:26 26.12559 -80.32635 15633 ft 350 kts 313°
2026-05-04 21:27 26.14361 -80.34426 16216 ft 353 kts 313°
2026-05-04 21:27 26.16201 -80.36255 16814 ft 356 kts 313°
2026-05-04 21:27 26.18051 -80.38097 17372 ft 359 kts 313°
2026-05-04 21:27 26.19919 -80.39957 17928 ft 361 kts 313°
2026-05-04 21:28 26.21806 -80.41822 18460 ft 365 kts 315°
2026-05-04 21:28 26.23933 -80.43427 18929 ft 375 kts 326°
2026-05-04 21:28 26.26296 -80.44708 19426 ft 379 kts 328°
2026-05-04 21:28 26.28689 -80.45976 19911 ft 382 kts 328°
2026-05-04 21:29 26.31098 -80.47249 20443 ft 385 kts 328°
2026-05-04 21:29 26.33532 -80.48538 20980 ft 389 kts 328°
2026-05-04 21:29 26.35984 -80.49837 21458 ft 392 kts 328°
2026-05-04 21:29 26.38453 -80.51149 21917 ft 395 kts 328°
2026-05-04 21:30 26.40941 -80.52475 22379 ft 398 kts 328°
2026-05-04 21:30 26.43447 -80.53808 22831 ft 400 kts 328°
2026-05-04 21:30 26.45964 -80.55146 23321 ft 402 kts 328°
2026-05-04 21:30 26.48523 -80.56435 23728 ft 408 kts 333°
2026-05-04 21:31 26.54039 -80.58245 24475 ft 416 kts 337°
2026-05-04 21:31 26.56828 -80.59125 24854 ft 417 kts 337°
2026-05-04 21:31 26.59625 -80.60010 25218 ft 419 kts 337°
2026-05-04 21:32 26.62432 -80.60901 25562 ft 421 kts 337°
2026-05-04 21:32 26.65255 -80.61800 25903 ft 422 kts 337°
2026-05-04 21:32 26.68048 -80.62691 26237 ft 424 kts 337°
2026-05-04 21:32 26.70895 -80.63597 26624 ft 426 kts 337°
2026-05-04 21:33 26.73754 -80.64510 26944 ft 428 kts 337°
2026-05-04 21:33 26.76622 -80.65428 27272 ft 430 kts 337°
2026-05-04 21:33 26.79507 -80.66346 27587 ft 432 kts 337°
2026-05-04 21:33 26.82405 -80.67267 27899 ft 434 kts 337°
2026-05-04 21:34 26.85314 -80.68192 28209 ft 436 kts 337°
2026-05-04 21:34 26.88234 -80.69122 28558 ft 437 kts 336°
2026-05-04 21:34 26.91158 -80.70055 28850 ft 438 kts 336°
2026-05-04 21:34 26.94072 -80.71047 29165 ft 437 kts 334°
2026-05-04 21:35 26.96965 -80.72118 29459 ft 438 kts 333°
2026-05-04 21:35 26.99845 -80.73235 29738 ft 439 kts 333°
2026-05-04 21:35 27.02733 -80.74373 30017 ft 441 kts 333°
2026-05-04 21:35 27.05630 -80.75512 30243 ft 442 kts 333°
2026-05-04 21:36 27.08541 -80.76644 30442 ft 444 kts 333°
2026-05-04 21:36 27.11472 -80.77767 30623 ft 446 kts 333°
2026-05-04 21:36 27.14412 -80.78878 30867 ft 446 kts 333°
2026-05-04 21:36 27.17355 -80.79983 31156 ft 446 kts 333°
2026-05-04 21:37 27.20292 -80.81086 31453 ft 444 kts 333°
2026-05-04 21:37 27.23222 -80.82190 31727 ft 444 kts 333°
2026-05-04 21:37 27.26149 -80.83300 31979 ft 444 kts 333°
2026-05-04 21:37 27.29074 -80.84414 32235 ft 444 kts 333°
2026-05-04 21:38 27.31998 -80.85527 32481 ft 444 kts 333°
2026-05-04 21:38 27.34914 -80.86665 32712 ft 443 kts 332°
2026-05-04 21:38 27.37814 -80.87845 32965 ft 443 kts 331°
2026-05-04 21:38 27.40700 -80.89050 33212 ft 443 kts 331°
2026-05-04 21:39 27.43588 -80.90266 33478 ft 443 kts 331°
2026-05-04 21:39 27.46434 -80.91458 33727 ft 443 kts 331°
2026-05-04 21:39 27.49328 -80.92660 33980 ft 443 kts 332°
2026-05-04 21:39 27.52221 -80.93853 34197 ft 443 kts 332°
2026-05-04 21:40 27.55118 -80.95042 34434 ft 443 kts 332°
2026-05-04 21:40 27.58012 -80.96229 34669 ft 442 kts 332°
2026-05-04 21:40 27.60896 -80.97412 34897 ft 441 kts 332°
2026-05-04 21:40 27.63782 -80.98599 35019 ft 441 kts 332°
2026-05-04 21:41 27.66652 -80.99782 35051 ft 438 kts 331°
2026-05-04 21:41 27.72366 -81.02153 35047 ft 437 kts 331°
2026-05-04 21:42 27.78069 -81.04521 35081 ft 437 kts 331°
2026-05-04 21:42 27.83773 -81.06882 35047 ft 436 kts 331°
2026-05-04 21:43 27.89471 -81.09240 35048 ft 436 kts 331°
2026-05-04 21:43 27.95168 -81.11605 35057 ft 436 kts 331°
2026-05-04 21:44 28.00856 -81.13977 35055 ft 436 kts 331°
2026-05-04 21:44 28.06496 -81.16446 35060 ft 433 kts 328°
2026-05-04 21:45 28.11954 -81.19260 35093 ft 430 kts 327°
2026-05-04 21:45 28.17351 -81.22169 35093 ft 430 kts 327°
2026-05-04 21:46 28.22742 -81.25002 35088 ft 430 kts 327°
2026-05-04 21:46 28.28195 -81.27805 35081 ft 430 kts 328°
2026-05-04 21:47 28.33650 -81.30601 35082 ft 430 kts 328°
2026-05-04 21:47 28.39094 -81.33390 35110 ft 429 kts 328°
2026-05-04 21:48 28.44537 -81.36161 35103 ft 428 kts 328°
2026-05-04 21:48 28.49970 -81.38935 35094 ft 428 kts 328°
2026-05-04 21:49 28.55392 -81.41713 35094 ft 427 kts 328°
2026-05-04 21:49 28.60814 -81.44489 35082 ft 427 kts 328°
2026-05-04 21:50 28.66226 -81.47274 35078 ft 427 kts 328°
2026-05-04 21:50 28.71639 -81.50059 35110 ft 427 kts 329°
2026-05-04 21:51 28.77009 -81.52822 35098 ft 426 kts 329°
2026-05-04 21:51 28.82405 -81.55605 35092 ft 425 kts 328°
2026-05-04 21:52 28.87795 -81.58384 35089 ft 425 kts 329°
2026-05-04 21:52 28.93345 -81.60809 35082 ft 435 kts 341°
2026-05-04 21:53 28.99446 -81.61556 35111 ft 443 kts 348°
2026-05-04 21:53 29.05588 -81.62098 35103 ft 443 kts 348°
2026-05-04 21:54 29.11728 -81.62656 35101 ft 442 kts 348°
2026-05-04 21:54 29.17856 -81.63217 35096 ft 442 kts 348°
2026-05-04 21:55 29.23986 -81.63779 35097 ft 441 kts 348°
2026-05-04 21:55 29.30066 -81.64336 35120 ft 441 kts 347°
2026-05-04 21:56 29.36175 -81.64900 35112 ft 440 kts 347°
2026-05-04 21:56 29.42279 -81.65460 35104 ft 440 kts 348°
2026-05-04 21:57 29.48377 -81.66019 35092 ft 439 kts 348°
2026-05-04 21:57 29.54466 -81.66585 35092 ft 439 kts 348°
2026-05-04 21:58 29.60549 -81.67149 35111 ft 439 kts 347°
2026-05-04 21:58 29.66641 -81.67716 35100 ft 439 kts 347°
2026-05-04 21:59 29.72735 -81.68284 35090 ft 440 kts 347°
2026-05-04 21:59 29.78833 -81.68846 35089 ft 440 kts 347°
2026-05-04 22:00 29.84891 -81.69406 35090 ft 439 kts 347°
2026-05-04 22:00 29.90986 -81.69973 35124 ft 440 kts 347°
2026-05-04 22:01 29.97089 -81.70536 35113 ft 440 kts 347°
2026-05-04 22:01 30.03189 -81.71097 35114 ft 440 kts 347°
2026-05-04 22:02 30.09283 -81.71666 35102 ft 439 kts 347°
2026-05-04 22:02 30.15376 -81.72239 35128 ft 439 kts 346°
2026-05-04 22:03 30.21461 -81.72808 35112 ft 438 kts 347°
2026-05-04 22:03 30.27536 -81.73377 35114 ft 438 kts 347°
2026-05-04 22:04 30.33617 -81.73950 35109 ft 438 kts 347°
2026-05-04 22:04 30.39698 -81.74517 35094 ft 439 kts 347°
2026-05-04 22:05 30.45778 -81.75085 35089 ft 438 kts 347°
2026-05-04 22:05 30.51864 -81.75663 35090 ft 439 kts 346°
2026-05-04 22:06 30.56921 -81.76144 35091 ft 439 kts 347°
2026-05-04 22:06 30.63761 -81.77598 35096 ft 420 kts 330°
2026-05-04 22:07 30.68958 -81.80500 35100 ft 414 kts 326°
2026-05-04 22:07 30.74113 -81.83477 35154 ft 413 kts 326°
2026-05-04 22:08 30.78433 -81.85960 35153 ft 413 kts 326°
2026-05-04 22:08 30.83574 -81.88926 35121 ft 412 kts 325°
2026-05-04 22:09 30.88707 -81.91904 35116 ft 412 kts 325°
2026-05-04 22:09 30.93799 -81.94867 35092 ft 412 kts 325°
2026-05-04 22:10 30.98925 -81.97847 35114 ft 412 kts 325°
2026-05-04 22:10 31.04051 -82.00827 35145 ft 411 kts 325°
2026-05-04 22:11 31.09168 -82.03811 35109 ft 411 kts 325°
2026-05-04 22:11 31.14281 -82.06800 35098 ft 411 kts 325°
2026-05-04 22:12 31.19391 -82.09795 35086 ft 411 kts 325°
2026-05-04 22:12 31.24508 -82.12791 35086 ft 411 kts 325°
2026-05-04 22:13 31.29623 -82.15784 35104 ft 411 kts 325°
2026-05-04 22:13 31.34717 -82.18755 35057 ft 408 kts 325°
2026-05-04 22:14 31.39762 -82.21715 35053 ft 409 kts 325°
2026-05-04 22:14 31.44844 -82.24709 35054 ft 409 kts 324°
2026-05-04 22:15 31.49922 -82.27707 35057 ft 409 kts 325°
2026-05-04 22:15 31.55003 -82.30709 35059 ft 409 kts 325°
2026-05-04 22:16 31.60083 -82.33708 35083 ft 409 kts 325°
2026-05-04 22:16 31.65174 -82.36708 35068 ft 410 kts 325°
2026-05-04 22:17 31.70269 -82.39716 35064 ft 410 kts 325°
2026-05-04 22:17 31.75359 -82.42730 35061 ft 410 kts 325°
2026-05-04 22:18 31.80449 -82.45743 35067 ft 409 kts 325°
2026-05-04 22:18 31.85534 -82.48757 35116 ft 410 kts 326°
2026-05-04 22:19 31.90642 -82.51806 35078 ft 412 kts 326°
2026-05-04 22:19 31.95698 -82.54894 35066 ft 409 kts 321°
2026-05-04 22:20 32.00083 -82.59003 35060 ft 402 kts 313°
2026-05-04 22:20 32.04313 -82.63312 35058 ft 402 kts 313°
2026-05-04 22:21 32.08550 -82.67631 35049 ft 402 kts 313°
2026-05-04 22:21 32.12783 -82.71951 35051 ft 402 kts 313°
2026-05-04 22:22 32.17010 -82.76284 35055 ft 403 kts 314°
2026-05-04 22:22 32.19138 -82.78469 34919 ft 411 kts 314°
2026-05-04 22:22 32.21315 -82.80706 34681 ft 417 kts 314°
2026-05-04 22:22 32.23505 -82.82955 34445 ft 418 kts 314°
2026-05-04 22:23 32.25672 -82.85177 34018 ft 418 kts 314°
2026-05-04 22:23 32.27882 -82.87440 33084 ft 421 kts 314°
2026-05-04 22:23 32.30074 -82.89676 32619 ft 412 kts 314°
2026-05-04 22:23 32.32232 -82.91879 32086 ft 407 kts 314°
2026-05-04 22:24 32.34361 -82.94060 31540 ft 402 kts 314°
2026-05-04 22:24 32.36459 -82.96221 31044 ft 398 kts 314°
2026-05-04 22:24 32.38532 -82.98362 30523 ft 394 kts 314°
2026-05-04 22:24 32.40591 -83.00487 29952 ft 392 kts 314°
2026-05-04 22:25 32.42640 -83.02596 29385 ft 388 kts 315°
2026-05-04 22:25 32.44667 -83.04682 28854 ft 385 kts 315°
2026-05-04 22:25 32.46677 -83.06750 28335 ft 381 kts 315°
2026-05-04 22:25 32.48665 -83.08797 27822 ft 377 kts 315°
2026-05-04 22:26 32.50633 -83.10828 27324 ft 374 kts 315°
2026-05-04 22:26 32.52584 -83.12843 26826 ft 371 kts 315°
2026-05-04 22:26 32.54521 -83.14845 26348 ft 368 kts 315°
2026-05-04 22:26 32.56443 -83.16834 25879 ft 366 kts 315°
2026-05-04 22:27 32.58354 -83.18811 25413 ft 364 kts 315°
2026-05-04 22:27 32.60227 -83.20746 24969 ft 361 kts 315°
2026-05-04 22:27 32.62114 -83.22697 24521 ft 359 kts 315°
2026-05-04 22:27 32.63986 -83.24639 24078 ft 356 kts 315°
2026-05-04 22:28 32.65845 -83.26573 23635 ft 355 kts 315°
2026-05-04 22:28 32.67698 -83.28498 23132 ft 352 kts 315°
2026-05-04 22:28 32.69533 -83.30405 22687 ft 349 kts 315°
2026-05-04 22:28 32.71346 -83.32295 22263 ft 346 kts 315°
2026-05-04 22:29 32.73148 -83.34171 21818 ft 343 kts 315°
2026-05-04 22:29 32.74938 -83.36033 21374 ft 341 kts 315°
2026-05-04 22:29 32.76718 -83.37887 20921 ft 339 kts 315°
2026-05-04 22:29 32.78488 -83.39733 20489 ft 338 kts 315°
2026-05-04 22:30 32.80255 -83.41574 20041 ft 337 kts 315°
2026-05-04 22:30 32.82018 -83.43409 19603 ft 337 kts 315°
2026-05-04 22:30 32.83780 -83.45243 19154 ft 336 kts 315°
2026-05-04 22:30 32.85537 -83.47075 18710 ft 336 kts 315°
2026-05-04 22:31 32.87295 -83.48916 18256 ft 337 kts 315°
2026-05-04 22:31 32.89051 -83.50759 17755 ft 337 kts 316°
2026-05-04 22:31 32.90805 -83.52601 17301 ft 336 kts 316°
2026-05-04 22:31 32.92554 -83.54438 16866 ft 335 kts 316°
2026-05-04 22:32 32.94297 -83.56270 16433 ft 334 kts 316°
2026-05-04 22:32 32.96015 -83.58070 16015 ft 333 kts 316°
2026-05-04 22:32 32.97754 -83.59888 15594 ft 332 kts 316°
2026-05-04 22:32 32.99488 -83.61706 15184 ft 332 kts 316°
2026-05-04 22:33 33.01219 -83.63517 14753 ft 331 kts 316°
2026-05-04 22:33 33.02949 -83.65327 14328 ft 331 kts 317°
2026-05-04 22:33 33.04676 -83.67139 13907 ft 330 kts 317°
2026-05-04 22:33 33.06398 -83.68948 13448 ft 330 kts 317°
2026-05-04 22:34 33.08115 -83.70749 13014 ft 328 kts 317°
2026-05-04 22:34 33.09820 -83.72543 12591 ft 326 kts 317°
2026-05-04 22:34 33.11493 -83.74305 12433 ft 316 kts 316°
2026-05-04 22:34 33.13115 -83.76010 12270 ft 306 kts 316°
2026-05-04 22:35 33.14696 -83.77675 12085 ft 301 kts 316°
2026-05-04 22:35 33.16267 -83.79335 11690 ft 302 kts 316°
2026-05-04 22:35 33.17843 -83.80999 11275 ft 303 kts 316°
2026-05-04 22:35 33.19414 -83.82673 10856 ft 303 kts 315°
2026-05-04 22:36 33.20933 -83.84407 10501 ft 301 kts 313°
2026-05-04 22:36 33.22420 -83.86177 10127 ft 300 kts 313°
2026-05-04 22:36 33.23875 -83.87938 9700 ft 301 kts 312°
2026-05-04 22:36 33.25332 -83.89705 9367 ft 297 kts 312°
2026-05-04 22:37 33.26785 -83.91461 8962 ft 297 kts 313°
2026-05-04 22:37 33.28236 -83.93206 8570 ft 295 kts 313°
2026-05-04 22:37 33.29679 -83.94937 8222 ft 292 kts 313°
2026-05-04 22:37 33.31103 -83.96642 8039 ft 288 kts 313°
2026-05-04 22:38 33.32518 -83.98335 8016 ft 288 kts 313°
2026-05-04 22:38 33.33963 -83.99995 8021 ft 289 kts 321°
2026-05-04 22:38 33.35657 -84.01296 8026 ft 290 kts 327°
2026-05-04 22:38 33.37385 -84.02559 8026 ft 291 kts 327°
2026-05-04 22:39 33.39111 -84.03817 8029 ft 291 kts 327°
2026-05-04 22:39 33.40841 -84.05075 8030 ft 291 kts 327°
2026-05-04 22:39 33.42571 -84.06333 8029 ft 291 kts 327°
2026-05-04 22:39 33.44300 -84.07596 8029 ft 291 kts 327°
2026-05-04 22:40 33.46026 -84.08859 8015 ft 290 kts 327°
2026-05-04 22:40 33.47739 -84.10112 7653 ft 288 kts 327°
2026-05-04 22:40 33.49444 -84.11360 7259 ft 287 kts 327°
2026-05-04 22:40 33.51143 -84.12603 6900 ft 285 kts 327°
2026-05-04 22:41 33.52833 -84.13842 6526 ft 284 kts 327°
2026-05-04 22:41 33.54504 -84.15065 5990 ft 280 kts 327°
2026-05-04 22:41 33.56158 -84.16276 5340 ft 277 kts 327°
2026-05-04 22:41 33.57799 -84.17475 4679 ft 275 kts 327°
2026-05-04 22:42 33.59423 -84.18662 4157 ft 268 kts 327°
2026-05-04 22:42 33.60964 -84.19791 4024 ft 253 kts 326°
2026-05-04 22:42 33.62314 -84.20999 4020 ft 232 kts 308°
2026-05-04 22:42 33.63050 -84.22597 4017 ft 209 kts 280°
2026-05-04 22:43 33.63179 -84.24252 4044 ft 195 kts 266°
2026-05-04 22:43 33.63180 -84.25848 3812 ft 188 kts 266°
2026-05-04 22:43 33.63180 -84.27413 3345 ft 188 kts 267°
2026-05-04 22:43 33.63178 -84.28948 3090 ft 178 kts 267°
2026-05-04 22:44 33.63178 -84.30391 2865 ft 168 kts 266°
2026-05-04 22:44 33.63179 -84.31741 2686 ft 155 kts 266°
2026-05-04 22:44 33.63180 -84.33007 2475 ft 147 kts 265°
2026-05-04 22:44 33.63180 -84.34212 2278 ft 143 kts 267°
2026-05-04 22:45 33.63180 -84.35410 2101 ft 144 kts 267°
2026-05-04 22:45 33.63181 -84.37782 1697 ft 142 kts 266°
2026-05-04 22:45 33.63181 -84.38970 1512 ft 142 kts 265°
2026-05-04 22:46 33.63179 -84.40147 1331 ft 141 kts 268°
2026-05-04 22:46 33.63178 -84.41322 1150 ft 140 kts 269°
2026-05-04 22:46 33.63185 -84.42476 1035 ft 132 kts 268°
2026-05-04 22:46 33.63183 -84.43300 1037 ft 57 kts 270°
2026-05-04 22:47 33.63207 -84.43564 1037 ft 24 kts 289°
2026-05-04 22:47 33.63255 -84.43690 1036 ft 17 kts 299°
2026-05-04 22:47 33.63315 -84.43817 1035 ft 19 kts 300°
2026-05-04 22:47 33.63361 -84.43966 1035 ft 20 kts 273°
2026-05-04 22:48 33.63362 -84.44125 1035 ft 15 kts 271°
2026-05-04 22:48 33.63380 -84.44177 1035 ft 0 kts 319°
2026-05-04 22:49 33.63383 -84.44180 1035 ft 4 kts 322°
2026-05-04 22:50 33.63444 -84.44197 1035 ft 10 kts 356°
2026-05-04 22:50 33.63505 -84.44197 1036 ft 7 kts
2026-05-04 22:50 33.63574 -84.44195 1036 ft 10 kts 359°
2026-05-04 22:50 33.63642 -84.44189 1036 ft 9 kts 22°
2026-05-04 22:51 33.63665 -84.44127 1036 ft 9 kts 87°
2026-05-04 22:51 33.63665 -84.44049 1036 ft 11 kts 90°
2026-05-04 22:51 33.63665 -84.43935 1036 ft 14 kts 90°
2026-05-04 22:51 33.63665 -84.43824 1035 ft 13 kts 90°
2026-05-04 22:52 33.63690 -84.43737 1035 ft 11 kts 39°
2026-05-04 22:52 33.63799 -84.43724 1035 ft 18 kts 353°
2026-05-04 22:52 33.63898 -84.43725 1035 ft 12 kts
2026-05-04 22:52 33.63977 -84.43722 1035 ft 11 kts
2026-05-04 22:53 33.64001 -84.43667 1035 ft 4 kts 93°
2026-05-04 22:53 33.64001 -84.43650 1035 ft 0 kts 91°
2026-05-04 22:53 33.64001 -84.43644 1035 ft 1 kts 89°
2026-05-04 22:53 33.64001 -84.43640 1035 ft 0 kts 90°